Regional Weather Roundup
Issued by NWS

Home | Current Version | Previous Version | Text Only | Print | Product List | Glossary Off
Versions: 1 2 3 4 5 6 7 8 9 10 11 12 13 14 15 16 17 18 19 20 21 22 23 24 25 26 27 28 29 30 31 32 33 34 35 36 37 38 39 40 41 42 43 44 45 46 47 48 49 50

000
ASUS43 KBIS 230510
RWRND

NORTH DAKOTA REGIONAL WEATHER ROUNDUP
NATIONAL WEATHER SERVICE BISMARCK ND
1200 AM CDT SAT MAY 23 2015

NOTE: "FAIR" INDICATES FEW OR NO CLOUDS BELOW 12,000 FEET WITH NO
SIGNIFICANT WEATHER AND/OR OBSTRUCTIONS TO VISIBILITY.


NDZ001>003-009>011-017-230600-
NORTHWEST NORTH DAKOTA

CITY           SKY/WX    TMP DP  RH WIND       PRES   REMARKS
WILLISTON      PTCLDY    60  37  42 SE5       30.07R
MINOT          MOCLDY    59  41  51 SE5       30.08S
MINOT AFB      MOCLDY    55  42  60 S3        30.07S
$$

NDZ018>021-031>035-040>046-230600-
SOUTHWEST NORTH DAKOTA

CITY           SKY/WX    TMP DP  RH WIND       PRES   REMARKS
BISMARCK       PTCLDY    58  39  49 S3        30.12R
DICKINSON      PTCLDY    47  34  60 S10       30.08S
GARRISON         N/A     55  42  61 SE6       30.10R
HETTINGER ARPT PTCLDY    49  38  65 SE7       30.11S
$$

NDZ004>008-012>016-024-026-027-054-230600-
NORTHEAST NORTH DAKOTA

CITY           SKY/WX    TMP DP  RH WIND       PRES   REMARKS
GRAND FORKS    CLEAR     53  43  68 S5        30.11F
GRND FRKS AFB  CLEAR     54  44  67 SW3       30.12S
DEVILS LAKE    CLEAR     55  43  62 SE6       30.11S
$$

NDZ022-023-025-028>030-036>039-047>053-230600-
SOUTHEAST NORTH DAKOTA

CITY           SKY/WX    TMP DP  RH WIND       PRES   REMARKS
FARGO          FAIR      62  39  42 SE8       30.13S
JAMESTOWN      PTCLDY    57  39  51 SE8       30.12S
$$




USA.gov is the U.S. government's official web portal to all federal, state and local government web resources and services.